Probability
0 0 0 0 0 0 0 0 0 0 0 0 0 0 0 0 0 0 0 0 0 0 0 0 0 0 0 0 0 0 0 0 0 0 0 0 0 0 0 0 0 0 0 0
0 0 0 0 0 0 0 0 0 0 0 0 0 0 0 0 0 0 0 0 0 0 0 0 0 0 0 0 0 0 0 0 0 0 0 0 0 0 0 0 0 0 0 0
0 0 0 0 0 0 0 0 0 0 0 0 0 0 0 0 0 0 0 0 0 0 0 0 0 0 0 0 0 0 0 0 0 0 0 0 0 0 0 0 0 0 0 0
0 0 0 0 0 0 0 0 0 0 0 0 0 0 0 0 0 0 0 0 0 0 0 0 0 0 0 0 0 0 0 0 0 0 0 0 0 0 0 0 0 0 0 0
0 0 0 0 0 0 0 0 0 0 0 0 0 0 0 0 0 0 0 0 0 0 0 0 0 0 0 0 0 0 0 0 0 0 0 0 0 0 0 0 0 0 0 0
0 0 0 0 0 0 0 0 0 0 0 0 0 0 0 0 0 0 0 0 0 0 0 0 0 0 0 0 0 0 0 0 0 0 0 0 0 0 0 0 0 0 0 0
0 0 0 0 0 0 0 0 0 0 0 0 0 0 0 0 0 0 0 0 0 0 0 0 0 0 0 0 0 0 0 0 0 0 0 0 0 0 0 0 0 0 0 0
0 0 0 0 0 0 0 0 0 0 0 0 0 0 0 0 0 0 0 0 0 0 0 0 0 0 0 0 0 0 0 0 0 0 0 0 0 0 0 0 0 0 0 0
0 0 0 0 0 0 0 0 0 0 0 0 0 0 0 0 0 0 0 0 0 0 0 0 0 0 0 0 0 0 0 0 0 0 0 0 0 0 0 0 0 0 0 0
0 0 0 0 0 0 0 0 0 0 0 0 0 0 0 0 0 0 0 0 0 0 0 0 0 0 0 0 0 0 0 0 0 0 0 0 0 0 0 0 0 0 0 0
0 0 0 0 0 0 0 0 0 0 0 0 0 0 0 0 0 0 0 0 0 0 0 0 0 0 0 0 0 0 0 0 0 0 0 0 0 0 0 0 0 0 0 0
0 0 0 0 0 0 0 0 0 0 0 0 0 0 0 0 0 0 0 0 0 0 0 0 0 0 0 0 0 0 0 0 0 0 0 0 0 0 0 0 0 0 0 0
0 0 0 0 0 0 0 0 0 0 0 0 0 0 0 0 0 0 0 0 0 0 0 0 0 0 0 0 0 0 0 0 0 0 0 0 0 0 0 0 0 0 0 0
0 0 0 0 0 0 0 0 0 0 0 0 0 0 0 0 0 0 0 0 0 0 0 0 0 0 0 0 0 0 0 0 0 0 0 0 0 0 0 0 0 0 0 0
0 0 0 0 0 0 0 0 0 0 0 0 0 0 0 0 0 0 0 0 0 0 0 0 0 0 0 0 0 0 0 0 0 0 0 0 0 0 0 0 0 0 0 0
0 0 0 0 0 0 0 0 0 0 0 0 0 0 0 0 0 0 0 0 0 0 0 0 0 0 0 0 0 0 0 0 0 0 0 0 0 0 0 0 0 0 0 0
0 0 0 0 0 0 0 0 0 0 0 0 0 0 0 0 0 0 0 0 0 0 0 0 0 0 0 0 0 0 0 0 0 0 0 0 0 0 0 0 0 0 0 0
0 0 0 0 0 0 0 0 0 0 0 0 0 0 0 0 0 0 0 0 0 0 0 0 0 0 0 0 0 0 0 0 0 0 0 0 0 0 0 0 0 0 0 0
0 0 0 0 0 0 0 0 0 0 0 0 0 0 0 0 0 0 0 0 0 0 0 0 0 0 0 0 0 0 0 0 0 0 0 0 0 0 0 0 0 0 0 0
0 0 0 0 0 0 0 0 0 0 0 0 0 0 0 0 0 0 0 0 0 0 0 0 0 0 0 0 0 0 0 0 0 0 0 0 0 0 0 0 0 0 0 0
0 0 0 0 0 0 0 0 0 0 0 0 0 0 0 0 0 0 0 0 0 0 0 0 0 0 0 0 0 0 0 0 0 0 0 0 0 0 0 0 0 0 0 0
0 0 0 0 0 0 0 0 0 0 0 0 0 0 0 0 0 0 0 0 0 0 0 0 0 0 0 0 0 0 0 0 0 0 0 0 0 0 0 0 0 0 0 0
0 0 0 0 0 0 0 0 0 0 0 0 0 0 0 3 0 0 0 0 0 0 0 0 0 0 0 0 0 0 0 0 0 0 0 0 0 0 0 0 0 0 0 0
0 0 0 0 0 0 0 0 0 0 0 0 0 0 3 0 0 0 0 0 0 0 0 0 0 0 0 0 0 0 0 0 0 0 0 0 0 0 0 0 0 0 0 0
0 0 0 0 0 0 0 0 0 3 0 0 3 0 3 0 0 0 0 0 0 0 0 0 0 0 0 0 0 0 0 0 0 0 0 0 0 0 0 0 0 0 0 0
0 0 0 0 0 0 0 0 0 0 0 0 3 3 0 0 0 0 0 0 0 0 0 0 0 0 0 0 0 0 0 0 0 0 0 0 0 0 0 0 0 0 0 0
0 0 0 0 0 0 0 0 0 0 0 0 0 0 0 0 0 0 0 0 0 0 0 0 0 0 0 0 0 0 0 0 0 0 0 0 0 0 0 0 0 0 0 0
Height
5859 5859 5857 5855 5854 5851 5848 5846 5844 5842 5839 5835 5831 5827 5822 5817 5810 5803 5796 5788 5780 5772 5763 5755 5747 5739 5730 5722 5714 5707 5699 5691 5683 5676 5669 5663 5656 5649 5642 5634 5627 5620 5612 5605
5855 5855 5854 5853 5851 5848 5845 5842 5840 5838 5835 5831 5827 5822 5817 5812 5805 5798 5790 5782 5773 5764 5756 5747 5739 5730 5722 5713 5705 5696 5688 5680 5672 5665 5658 5651 5643 5636 5628 5619 5611 5602 5594 5586
5852 5851 5851 5850 5848 5845 5841 5839 5836 5833 5831 5826 5822 5817 5813 5808 5801 5793 5785 5775 5766 5757 5748 5740 5731 5722 5713 5704 5695 5687 5678 5670 5662 5654 5647 5639 5631 5623 5614 5605 5596 5586 5577 5569
5849 5848 5847 5848 5843 5841 5838 5835 5832 5829 5825 5821 5817 5811 5806 5802 5794 5786 5777 5768 5759 5750 5742 5733 5723 5714 5705 5696 5687 5678 5669 5660 5652 5644 5636 5628 5620 5611 5601 5591 5582 5572 5563 5554
5846 5845 5844 5843 5839 5836 5834 5831 5828 5824 5821 5817 5812 5807 5799 5794 5786 5778 5770 5762 5754 5744 5735 5726 5717 5708 5698 5688 5679 5669 5660 5651 5643 5635 5627 5618 5609 5600 5589 5580 5570 5560 5550 5541
5843 5841 5839 5839 5835 5832 5830 5825 5823 5819 5815 5811 5806 5803 5797 5789 5782 5774 5766 5757 5748 5739 5729 5720 5711 5701 5691 5681 5672 5662 5652 5643 5635 5626 5618 5609 5600 5590 5580 5569 5560 5550 5541 5531
5839 5837 5836 5832 5830 5829 5826 5822 5817 5813 5809 5805 5801 5797 5791 5784 5777 5769 5760 5751 5742 5733 5724 5714 5705 5695 5685 5675 5665 5655 5645 5636 5627 5619 5610 5601 5591 5581 5571 5561 5552 5542 5533 5523
5836 5834 5833 5826 5825 5823 5821 5816 5812 5808 5805 5800 5796 5790 5784 5777 5770 5762 5754 5745 5737 5728 5719 5709 5699 5689 5680 5669 5659 5649 5639 5629 5621 5612 5603 5593 5584 5574 5564 5555 5545 5536 5526 5517
5832 5831 5826 5822 5819 5817 5814 5811 5807 5803 5799 5794 5789 5784 5778 5771 5764 5756 5748 5740 5731 5722 5713 5704 5694 5684 5674 5663 5653 5643 5632 5623 5614 5606 5596 5586 5577 5567 5558 5549 5540 5531 5522 5513
5825 5824 5820 5816 5813 5811 5807 5804 5801 5797 5793 5788 5783 5777 5771 5765 5758 5750 5742 5734 5726 5717 5708 5699 5689 5678 5668 5658 5647 5637 5627 5618 5609 5600 5591 5581 5572 5562 5554 5545 5537 5528 5519 5511
5819 5817 5813 5810 5807 5805 5802 5798 5795 5791 5787 5782 5777 5771 5765 5758 5751 5744 5736 5728 5720 5711 5702 5693 5683 5673 5663 5653 5642 5632 5622 5613 5604 5595 5586 5577 5567 5559 5550 5543 5535 5527 5518 5510
5814 5811 5807 5805 5801 5798 5795 5792 5789 5785 5780 5775 5770 5764 5758 5751 5745 5738 5730 5723 5714 5706 5697 5688 5678 5669 5659 5648 5638 5628 5618 5609 5600 5592 5582 5573 5564 5556 5548 5541 5534 5526 5519 5511
5807 5804 5801 5798 5795 5792 5789 5785 5781 5777 5773 5768 5763 5757 5751 5745 5738 5731 5724 5716 5708 5700 5691 5682 5674 5664 5654 5644 5634 5624 5615 5606 5597 5589 5580 5571 5562 5554 5547 5540 5533 5527 5520 5514
5801 5798 5795 5793 5789 5786 5782 5778 5774 5770 5764 5759 5754 5749 5744 5737 5731 5724 5717 5710 5702 5694 5686 5678 5669 5660 5651 5641 5631 5621 5612 5603 5595 5586 5578 5569 5561 5553 5546 5540 5534 5528 5522 5517
5793 5790 5788 5785 5781 5778 5775 5771 5766 5762 5756 5751 5745 5740 5735 5729 5723 5717 5710 5704 5697 5689 5681 5672 5664 5656 5647 5637 5628 5619 5610 5601 5593 5585 5577 5568 5560 5553 5546 5540 5534 5529 5524 5519
5784 5781 5778 5775 5772 5769 5766 5762 5757 5752 5747 5742 5736 5731 5726 5720 5715 5709 5703 5697 5691 5683 5676 5668 5660 5652 5644 5635 5625 5616 5607 5599 5592 5584 5576 5568 5560 5553 5546 5541 5535 5530 5526 5522
5774 5771 5768 5765 5762 5759 5755 5751 5747 5743 5738 5732 5727 5722 5717 5712 5706 5701 5695 5690 5684 5678 5671 5663 5656 5648 5640 5632 5623 5615 5606 5598 5591 5583 5576 5568 5560 5553 5547 5541 5536 5531 5527 5524
5763 5760 5757 5753 5750 5747 5744 5740 5737 5732 5728 5723 5718 5713 5708 5703 5698 5693 5688 5683 5677 5671 5665 5658 5651 5644 5637 5629 5621 5612 5605 5597 5590 5583 5576 5568 5561 5554 5548 5542 5537 5532 5528 5525
5751 5748 5745 5742 5738 5735 5732 5729 5725 5721 5717 5712 5708 5703 5698 5694 5689 5685 5680 5675 5670 5664 5658 5652 5645 5639 5632 5625 5618 5610 5603 5595 5589 5582 5576 5569 5562 5556 5549 5544 5538 5534 5530 5526
5739 5736 5733 5730 5726 5723 5720 5716 5713 5709 5705 5700 5696 5692 5688 5684 5679 5675 5670 5665 5661 5656 5651 5645 5640 5634 5628 5621 5614 5607 5600 5594 5588 5582 5576 5569 5563 5557 5551 5545 5540 5535 5531 5527
5725 5722 5720 5716 5713 5710 5707 5703 5700 5696 5691 5687 5684 5680 5676 5672 5668 5664 5660 5656 5652 5647 5643 5638 5634 5629 5623 5617 5611 5604 5598 5592 5587 5581 5576 5570 5564 5558 5553 5547 5542 5538 5533 5529
5709 5706 5704 5701 5698 5695 5692 5688 5685 5681 5677 5674 5670 5667 5664 5660 5657 5653 5650 5646 5643 5638 5635 5631 5627 5622 5618 5612 5607 5601 5595 5590 5585 5580 5576 5571 5566 5560 5555 5550 5545 5540 5536 5532
5693 5690 5687 5684 5681 5678 5676 5673 5669 5666 5662 5659 5656 5654 5651 5648 5644 5641 5638 5635 5632 5629 5626 5623 5619 5616 5612 5607 5603 5598 5592 5587 5583 5579 5575 5571 5566 5562 5557 5552 5548 5544 5540 5536
5675 5673 5670 5667 5664 5661 5659 5656 5653 5650 5647 5644 5642 5640 5637 5634 5632 5629 5626 5625 5622 5619 5617 5615 5612 5609 5605 5602 5598 5593 5589 5584 5580 5576 5573 5570 5566 5563 5559 5554 5551 5547 5543 5540
5658 5655 5652 5649 5646 5643 5641 5638 5635 5633 5631 5629 5628 5626 5623 5621 5619 5616 5613 5613 5612 5609 5608 5606 5604 5601 5599 5596 5592 5589 5584 5581 5577 5574 5571 5569 5566 5563 5560 5556 5553 5550 5547 5543
5640 5638 5635 5631 5628 5626 5623 5621 5619 5617 5615 5613 5612 5611 5609 5607 5606 5605 5603 5602 5601 5600 5599 5598 5596 5594 5592 5590 5587 5584 5580 5577 5573 5571 5569 5567 5565 5563 5561 5558 5555 5553 5550 5547
5621 5618 5616 5614 5611 5609 5607 5605 5604 5602 5600 5598 5598 5597 5596 5594 5593 5592 5592 5591 5591 5591 5590 5589 5588 5586 5585 5583 5581 5578 5575 5572 5570 5567 5566 5564 5563 5562 5561 5559 5557 5555 5553 5551
Wind_Speed
11 11 13 14 15 15 16 16 16 18 21 24 25 27 28 30 33 36 39 40 42 42 42 42 43 44 44 44 44 45 45 45 45 43 43 43 44 46 47 48 49 51 51 52
11 10 13 14 16 18 19 19 19 19 21 25 26 28 29 31 35 38 40 41 43 43 43 44 45 45 45 45 46 47 47 46 45 44 43 43 45 46 48 49 50 51 50 50
11 10 12 15 17 19 22 21 21 22 23 25 26 28 30 31 35 39 41 42 44 45 45 46 46 47 47 47 48 48 48 47 45 44 43 44 46 47 48 49 49 49 48 47
12 10 9 15 19 20 21 21 21 23 25 26 28 31 33 34 37 41 43 44 45 46 46 47 47 48 48 49 50 50 49 47 45 44 43 45 46 48 49 48 47 47 45 43
15 12 10 15 22 19 20 21 20 22 24 26 28 31 36 38 41 44 45 45 45 46 47 47 48 48 49 50 50 50 49 47 44 43 43 44 46 47 47 46 45 44 42 40
17 16 14 14 19 20 22 25 22 24 25 28 29 31 34 38 40 43 44 44 44 45 47 48 49 50 51 51 51 50 48 45 43 43 43 44 46 46 45 44 43 42 40 39
22 20 18 21 20 22 24 26 26 27 28 29 31 32 34 37 40 42 44 44 44 46 47 49 50 50 51 51 51 50 47 44 42 43 43 44 44 44 43 42 41 40 38 36
22 21 22 26 25 25 25 25 26 27 28 30 31 33 35 38 41 43 44 44 44 45 47 49 50 51 51 51 50 49 46 43 42 42 43 43 43 42 40 39 38 38 37 34
21 23 27 29 27 27 26 26 26 27 29 30 32 34 36 39 41 43 44 43 44 45 47 49 50 51 51 51 50 48 45 43 41 42 42 42 41 40 39 37 37 36 35 31
22 20 25 27 27 27 27 27 27 29 30 31 33 36 38 40 41 43 44 43 43 45 46 48 50 51 51 51 50 48 44 42 41 41 41 41 40 38 36 35 35 34 32 28
24 23 24 25 26 27 27 27 28 30 31 33 35 37 39 41 42 43 43 43 44 45 47 48 50 51 51 51 49 47 44 41 41 41 40 39 38 36 34 33 32 32 30 26
25 25 26 26 26 27 27 27 29 30 32 34 37 39 40 41 42 42 43 43 44 46 47 48 49 50 51 50 49 47 43 41 40 40 40 38 36 34 33 31 30 30 28 24
27 26 26 26 27 28 29 29 31 33 35 36 38 40 41 41 41 42 43 43 45 46 47 48 48 49 50 50 49 46 43 40 39 39 39 37 36 33 31 29 28 27 26 22
28 27 26 26 27 29 31 33 34 36 39 40 41 41 42 42 42 42 43 44 45 46 47 47 47 48 49 49 48 45 42 39 38 38 37 36 34 32 30 28 26 25 23 20
29 30 30 30 31 32 34 36 38 39 41 43 44 43 43 44 43 43 44 44 45 46 46 46 46 46 48 48 46 44 41 38 37 37 36 35 33 31 28 26 24 23 21 18
34 35 36 37 37 38 39 40 41 43 44 45 46 46 45 45 45 45 45 45 45 46 46 45 44 45 45 46 45 43 40 38 36 35 35 34 32 30 27 24 22 21 19 17
39 40 41 42 42 42 43 44 45 45 46 46 47 48 47 47 46 46 45 45 45 46 45 43 43 43 43 44 44 42 39 36 35 34 33 33 32 30 26 23 21 19 17 16
42 44 45 45 45 46 46 46 46 47 48 48 48 48 48 47 46 46 46 45 45 44 43 41 41 41 42 42 42 41 38 35 33 32 32 32 31 29 26 24 21 18 16 14
44 45 46 47 48 49 49 49 48 49 50 50 50 49 49 47 46 46 48 47 44 42 41 40 39 39 40 40 40 39 36 34 31 30 30 30 30 29 26 23 21 18 17 14
46 46 47 48 50 51 51 51 52 52 52 52 52 50 49 48 46 46 48 45 42 40 39 38 38 38 38 38 38 36 35 32 30 28 28 27 27 27 25 23 21 19 17 15
50 50 50 51 52 53 52 53 53 54 54 54 53 51 49 47 48 48 46 42 39 37 37 37 35 35 35 35 35 34 33 30 27 26 26 25 25 25 24 22 21 19 17 16
53 54 54 55 55 55 54 54 54 55 55 55 53 52 50 48 49 48 44 40 37 36 36 35 34 33 33 33 33 32 31 28 25 23 23 23 23 23 22 20 20 19 18 18
57 58 59 59 58 58 57 56 55 55 55 55 53 51 50 49 48 45 42 39 37 37 37 35 33 31 31 31 30 30 28 26 23 21 20 20 20 20 20 18 18 18 18 18
60 60 60 60 60 59 59 58 57 56 56 54 53 51 49 48 46 45 44 42 39 37 35 34 32 29 28 27 27 27 26 24 21 19 18 17 17 17 17 17 16 16 16 17
61 61 60 60 60 59 59 58 57 56 55 54 51 49 47 46 44 44 44 41 37 36 34 32 29 27 25 25 25 24 24 22 19 17 16 14 13 14 14 14 14 14 15 15
60 59 59 59 58 58 57 56 54 53 52 50 47 45 44 43 42 42 40 38 36 34 32 31 28 25 23 22 22 22 22 20 18 15 14 12 10 9 10 11 11 11 12 13
60 60 59 58 57 56 54 52 50 48 47 46 43 42 41 40 40 39 37 36 34 32 30 29 26 23 21 20 20 20 20 19 16 14 12 10 8 7 6 7 8 8 9 9
Wind_Direction
292 292 292 297 300 299 300 303 303 302 305 308 317 320 324 329 332 335 337 337 336 334 332 331 329 327 325 323 322 321 320 319 316 314 311 310 310 310 309 306 305 303 300 296
293 296 294 301 308 303 303 307 308 308 309 312 318 320 325 330 332 335 335 336 337 336 335 333 331 330 328 326 325 324 323 321 319 316 314 314 314 314 313 311 309 307 304 300
296 281 291 303 300 295 303 309 310 312 313 315 317 319 324 330 331 334 336 338 339 338 337 335 333 332 331 329 328 327 325 324 321 319 317 317 317 318 316 315 313 311 308 304
306 297 303 302 297 302 307 308 311 313 315 317 319 321 325 331 332 337 340 340 340 338 336 336 335 334 332 331 330 329 327 325 323 321 320 320 320 321 320 319 317 315 312 308
311 305 299 292 300 307 311 311 314 313 313 315 319 322 325 333 335 338 339 339 339 338 337 337 336 335 334 332 331 330 329 327 325 323 323 323 323 323 323 322 321 319 317 314
312 312 310 301 296 312 313 311 318 314 315 318 320 322 326 331 333 336 337 337 338 338 338 338 338 337 335 334 333 332 330 328 326 326 326 326 326 326 325 325 325 324 322 319
311 313 311 298 306 308 308 311 316 315 318 318 318 322 325 329 332 335 337 337 337 338 338 338 338 338 336 335 335 334 332 330 329 329 329 328 328 328 328 328 328 328 327 324
298 299 290 294 302 303 304 307 309 311 313 314 317 321 326 330 333 335 336 336 337 338 338 338 339 338 338 337 337 336 334 333 332 332 331 331 331 331 331 331 331 332 331 329
298 291 289 295 298 300 301 304 307 309 312 315 318 322 326 330 333 335 336 336 336 337 338 338 339 339 339 339 339 338 337 335 335 334 334 334 335 335 334 335 335 335 335 334
309 300 291 295 296 298 301 304 306 309 312 314 318 321 325 329 331 334 335 335 335 336 337 338 339 339 340 340 340 340 339 337 337 337 337 337 338 338 338 338 340 341 341 340
308 305 300 299 298 299 301 303 306 309 312 315 317 321 324 328 330 332 333 334 334 335 336 337 339 339 340 341 342 342 341 340 340 340 340 340 341 341 341 342 344 346 347 347
304 304 303 304 302 302 303 305 307 309 312 315 317 320 323 326 328 330 331 333 334 335 336 337 338 339 340 342 343 344 343 342 342 343 344 344 344 343 344 345 347 349 351 353
303 304 304 305 304 305 307 308 309 310 312 314 316 319 322 324 326 327 329 332 333 335 336 336 337 338 340 342 343 344 344 343 344 345 347 347 347 346 346 347 349 352 355 358
302 304 305 304 304 304 304 305 307 309 311 313 315 318 320 322 324 326 329 331 332 333 335 335 336 338 340 342 343 345 345 345 345 347 349 350 350 349 349 349 351 353 357 2
300 300 302 302 302 301 301 302 304 307 309 311 314 316 319 321 322 323 326 328 331 332 334 334 335 337 339 341 343 345 346 346 346 348 350 351 351 351 350 351 352 354 358 2
297 298 298 299 300 300 300 302 304 306 308 309 311 314 316 318 319 320 323 326 328 331 333 333 334 335 338 341 343 345 346 346 347 349 352 353 353 353 351 351 351 354 358 2
294 294 294 295 297 298 299 301 302 304 305 306 309 311 313 314 316 317 318 322 325 328 330 331 332 333 336 339 342 345 346 347 347 349 352 354 355 355 354 352 352 353 356 2
290 290 291 293 294 296 297 298 299 300 301 303 305 306 308 309 312 313 314 316 320 325 328 329 330 332 334 337 340 343 346 347 347 349 351 354 356 356 356 354 353 355 356 359
287 288 289 291 292 293 295 296 296 297 298 300 301 303 304 305 306 308 309 310 313 319 325 327 328 330 332 335 338 341 344 346 347 348 350 353 356 357 359 359 358 356 357 358
286 286 286 287 288 290 291 292 293 293 294 296 298 298 300 300 300 303 304 305 309 315 320 324 326 327 329 332 336 340 343 345 346 347 350 354 357 358 360 1 3 3 4 5
286 286 286 286 287 288 288 288 289 290 291 293 293 295 297 296 295 298 298 301 306 312 316 320 322 323 325 329 333 337 340 343 344 345 348 354 358 359 1 4 5 6 8 9
285 286 286 287 287 288 289 289 289 290 290 292 292 294 295 294 294 295 295 297 303 308 311 315 319 320 322 325 330 334 337 339 341 342 345 352 358 1 3 5 7 10 11 11
284 285 286 287 288 289 289 289 290 290 291 292 292 293 293 292 293 292 293 296 301 306 308 310 313 315 317 321 325 330 334 336 337 338 340 346 355 0 3 7 11 14 16 16
283 284 286 287 288 289 289 289 289 289 289 290 291 292 291 290 289 288 290 295 299 301 303 305 307 309 312 317 322 326 331 332 333 334 335 340 350 358 3 8 13 16 20 21
284 285 286 287 288 288 289 289 289 289 290 291 291 291 290 288 286 286 288 292 293 295 298 300 302 305 309 313 318 323 327 329 329 329 330 333 343 355 2 8 15 18 24 27
284 285 285 286 287 288 288 289 290 291 292 292 292 291 289 287 286 286 287 287 290 293 295 295 295 297 301 307 314 320 325 326 325 324 323 323 331 347 0 8 14 21 27 32
285 285 285 286 287 287 288 290 291 292 292 292 291 290 288 285 284 284 284 285 287 289 289 290 291 291 297 303 310 318 323 323 320 318 315 311 313 325 348 5 14 24 29 33